Home > Weather > Spiez > Past weeks

Flag for Switzerland Weather for the Past 2 Weeks in Spiez, Bern, Switzerland

Now
38 °F

Chilly.


Feels Like: 33 °F
Forecast: 40 / 44 °F
Wind: 6 mph from Northeast

Location: Interlaken

Current Time: Feb 13, 2016 at 10:47:59 PM

Latest Report: Feb 13, 2016 at 9:00 PM


Visibility: N/A

Pressure: 29.35 "Hg (27.23 "Hg at 607m altitude)

Humidity: 100%

Dew point: 38 °F

Location of SpiezLocation

Historic Weather in Spiez — Graph

°F

Spiez Temperature Yesterday

Maximum temperature yesterday: 36 °F (at 4:00 PM)
Minimum temperature yesterday: 29 °F (at 8:00 AM)
Average temperature yesterday: 32 °F

High & Low Weather Summary for the Past Weeks

 TemperatureHumidityPressure
High59 °F (Feb 8, 5:00 PM)100% (Jan 29, 9:00 PM)30.57 "Hg (Jan 29, 9:00 PM)
Low27 °F (Feb 11, 10:00 AM)32% (Feb 8, 5:00 PM)29.23 "Hg (Feb 13, 3:00 PM)
Average39 °F93%30.00 "Hg
* Reported Jan 29 9:00 PM — Feb 13 9:00 PM, Spiez, Weather by CustomWeather, © 2016

Note: Actual official high and low records may vary slightly from our data, if they occured in-between our weather recording intervals... More about our weather records

Advertising

Spiez Weather History for the Previous 24 Hours

 ConditionsComfort  
Time TempWeatherWind HumidityBarometerVisibility
9:00 PM
Sat, Feb 13
38 °FChilly.6 mph100%29.35 "HgN/A
8:00 PM39 °FChilly.5 mph100%29.32 "HgN/A
7:00 PM39 °FChilly.3 mph100%29.32 "HgN/A
6:00 PM41 °FQuite cool.3 mph100%29.29 "HgN/A
5:00 PM43 °FQuite cool.8 mph100%29.23 "HgN/A
4:00 PM44 °FQuite cool.5 mph100%29.23 "HgN/A
3:00 PM44 °FQuite cool.5 mph98%29.23 "HgN/A
2:00 PM42 °FQuite cool.7 mph100%29.26 "HgN/A
1:00 PM39 °FChilly.5 mph100%29.35 "HgN/A
12:00 PM36 °FChilly.1 mph100%29.38 "HgN/A
11:00 AM36 °FChilly.1 mph100%29.41 "HgN/A
10:00 AM35 °FChilly.1 mph100%29.41 "HgN/A
9:00 AM35 °FChilly.7 mph100%29.44 "HgN/A
8:00 AM35 °FChilly.2 mph100%29.44 "HgN/A
7:00 AM34 °FChilly.1 mph100%29.44 "HgN/A
6:00 AM33 °FChilly.1 mph100%29.47 "HgN/A
5:00 AM33 °FChilly.2 mph100%29.47 "HgN/A
4:00 AM33 °FChilly.No wind100%29.47 "HgN/A
Weather by CustomWeather, © 2016

See weather overviewHow to use our weather pages